Chillicothe, MO

5:05 PM CST on December 09, 2016 (GMT -0600)
Chillicothe

Weather History for KCDJ - January, 2013

Change the Weather History Date:

Wednesday, January 23, 2013

  Actual Average (KIRK) Record (KIRK)
Temperature  
Mean Temperature 26 °F -  
Max Temperature 43 °F 37 °F 63 °F (1967)
Min Temperature 10 °F 18 °F -18 °F (1936)
Degree Days  
Heating Degree Days 38    
Moisture  
Dew Point 12 °F    
Average Humidity 63    
Maximum Humidity 88    
Minimum Humidity 38    
Precipitation  
Precipitation 0.00 in - - ()
Sea Level Pressure  
Sea Level Pressure 30.35 in    
Wind  
Wind Speed 5 mph (NW)    
Max Wind Speed 12 mph    
Max Gust Speed 18 mph    
Averages and records for this station are not official NWS values.
T = Trace of Precipitation, MM = Missing Value Source: NWS Daily Summary

Daily Weather History Graph

Daily Weather History Graph

Search for Another Location

Airport or City:

Trip Planner

Search our weather history database for the weather conditions in past years. The results will help you decide how hot, cold, wet, or windy it might be!

Date:

Astronomy

Jan. 23, 2013 Rise Set
Actual Time 7:29 AM CST 5:23 PM CST
Civil Twilight 7:00 AM CST 5:52 PM CST
Nautical Twilight 6:27 AM CST 6:25 PM CST
Astronomical Twilight 5:55 AM CST 6:57 PM CST
Moon 2:34 PM CST (1/23) 4:41 AM CST (1/23)
Length of Visible Light 10h 52m
Length of Day
9h 54m
Waxing Gibbous, 89% of the Moon is Illuminated
Jan 23
Waxing Gibbous
Jan 26
Full
Feb 3
Last Quarter
Feb 10
New
Feb 17
First Quarter

Hourly Weather History & Observations

Time (CST) Temp. Windchill Dew Point Humidity Pressure Visibility Wind Dir Wind Speed Gust Speed Precip Events Conditions
12:52 AM 12.9 °F 5.2 °F 9.0 °F 84% 30.40 in - ESE 4.6 mph - N/A   Unknown
1:52 AM 12.9 °F 6.9 °F 9.0 °F 84% 30.38 in - SE 3.5 mph - N/A   Unknown
2:52 AM 12.9 °F - 9.0 °F 84% 30.37 in - Calm Calm - N/A   Unknown
3:52 AM 12.9 °F 6.9 °F 8.1 °F 81% 30.35 in - SE 3.5 mph - N/A   Unknown
4:52 AM 12.0 °F - 7.0 °F 80% 30.34 in - Calm Calm - N/A   Unknown
5:52 AM 10.9 °F - 7.0 °F 84% 30.34 in - Calm Calm - N/A   Unknown
6:52 AM 10.9 °F 4.7 °F 7.0 °F 84% 30.33 in - SSE 3.5 mph - N/A   Unknown
7:52 AM 10.9 °F 4.7 °F 8.1 °F 88% 30.31 in - South 3.5 mph - N/A   Unknown
8:52 AM 16.0 °F 10.4 °F 10.0 °F 77% 30.32 in - Variable 3.5 mph - N/A   Unknown
9:52 AM 21.0 °F 14.6 °F 12.0 °F 68% 30.33 in - SW 4.6 mph - N/A   Unknown
10:52 AM 28.0 °F 21.7 °F 15.1 °F 58% 30.31 in - SSW 5.8 mph - N/A   Unknown
11:52 AM 34.0 °F 27.2 °F 17.1 °F 50% 30.28 in - WNW 8.1 mph - N/A   Unknown
12:52 PM 39.0 °F 32.8 °F 18.0 °F 43% 30.25 in - WNW 9.2 mph - N/A   Unknown
1:52 PM 42.1 °F 35.7 °F 18.0 °F 38% 30.24 in - NW 11.5 mph - N/A   Unknown
2:52 PM 43.0 °F 37.7 °F 19.0 °F 38% 30.25 in - NW 9.2 mph - N/A   Unknown
3:52 PM 42.1 °F 36.1 °F 19.0 °F 40% 30.26 in - NW 10.4 mph - N/A   Unknown
4:52 PM 37.9 °F 30.5 °F 18.0 °F 45% 30.29 in - North 11.5 mph - N/A   Unknown
5:52 PM 35.1 °F 27.9 °F 16.0 °F 46% 30.33 in - NNW 9.2 mph - N/A   Unknown
6:52 PM 30.9 °F 22.8 °F 15.1 °F 52% 30.37 in - North 9.2 mph 17.3 mph N/A   Unknown
7:52 PM 28.0 °F 20.0 °F 14.0 °F 56% 30.40 in - North 8.1 mph - N/A   Unknown
8:52 PM 26.1 °F 16.2 °F 12.9 °F 58% 30.43 in - North 10.4 mph 18.4 mph N/A   Unknown
9:52 PM 24.1 °F 14.4 °F 12.0 °F 60% 30.46 in - North 9.2 mph - N/A   Unknown
10:52 PM 21.0 °F 12.4 °F 9.0 °F 60% 30.49 in - North 6.9 mph - N/A   Unknown
11:52 PM 19.0 °F 8.2 °F 8.1 °F 62% 30.53 in - North 9.2 mph - N/A   Unknown